Jackpot

Texas Poker Multi Jackpot System

Kini Telah hadir Jackpot SUPER ROYAL FLUSH

Kini Telah hadir Jackpot 2000 (khusus table VIP keatas).

Ikutilah global jackpot yang tersedia di system kami, dengan system jackpot terbaru dan pertama di indonesia, anda dapat membeli jackpot dengan harga 100 rupiah saja dan menangkan hadiahnya hingga puluhan juta rupiah.

Jackpot bukanlah suatu keharusan untuk dibeli, namun kami memberikan suatu fitur tambahan untuk member tercinta dari www.s1288poker.co.

Terdapat tiga pilihan harga jackpot yang bisa anda beli yaitu :100,500,1000 dan 2000(khusus table VIP Keatas) rupiah.

Hadiah dari Multi jackpot system www.s1288poker.co

  1. full house x 10 harga jackpot yang anda beli.
      (contoh:anda membeli 1000 maka:1000 X10 = 10.000)
  2. four of kind x 250 harga jackpot yang anda beli
      (contoh:anda membeli 1000 maka:1000 X250 = 250.000)
  3. Straight flush x 1200
      (contoh:anda membeli 1000 maka:1000 X1200 = 1.200.000)
  4. Royal flush x 10000 harga jackpot yang anda beli
      (contoh:anda membeli 1000 maka:1000 X10000 = 10.000.000)
  5. SUPER ROYAL FLUSH x 30000 harga jackpot yang anda beli
      (contoh:anda membeli 1000 maka:1000 X30000 = 30.000.000)

Kondisi kartu

  1. full house adalah kondisi kartu dimana kartu anda dan kartu tengah dengan total 7 kartu bisa mendapatkan nilai 5 kartu dengan kombinasi 1 tris(three of kind) dan 1 pair, contoh 3 kartu 10 dan 2 kartu 5
  2. Four of kind adalah kondisi kartu dimana kartu anda dan kartu tengah dengan total 7 kartu bisa mendapatkan nilai 5 kartu dengan kombinasi 4 kartu yang sama jumlah dan 1 kartu apapun juga contoh anda mendapatkan 4 buah kartu angka 3 dan 1 kartu apapun.
  3. Staright flush adalah kondisi kartu dimana kartu anda dan kartu tengah dengan total 7 kartu bisa mendapatkan nilai 5 kartu dengan kombinasi seri / staright dengan kembang yang sama contoh : urutan kartu dari angka 5, 6, 7, 8 , 9 10 dengan kembang yg sama misalnya as hati
  4. Royal flush adalah kondisi kartu dimana kartu anda dan kartu tengah dengan total 7 kartu bisa mendapatkan nilai 5 kartu dengan kombinasi seri / staright dengan kembang yang sama tetapi kartu tersebut haruslah dimulai dari 10. contoh 10, Queen, Jack, King dan aces dengan kembang yang sama
  5. Super Royal flush adalah kondisi kartu dimana Kedua kartu anda digabung dengan 3 kartu pertama meja haruslah royal flush. contoh kartu anda 10,Queen kembang sama dan 3 kartu pertama meja adalah Jack, King dan aces dengan kembang yang sama

Demikian adalah penjelasan dari Multi Jackpot www.s1288poker.co terima kasih dan selamat bermain salam hoki dari kami

Texas Poker Jackpot Winner

TOP SUPER ROYAL FLUSH
No.TanggalNamaPriceWin
125/05 20:21SIKAT26Super Royal flush6,000,000
225/05 16:23ABOOTTSuper Royal flush60,000,000
325/05 15:54DR1NKNGSuper Royal flush15,000,000
425/05 04:52SONGONG21Super Royal flush15,000,000
525/05 03:00WAMBE88Super Royal flush15,000,000
TOP ROYAL FLUSH
No.TanggalNamaPriceWin
126/05 03:28YUNAISRoyal flush1,000,000
226/05 03:28CIMOYY999Royal flush20,000,000
326/05 03:25D1136F59Royal flush5,000,000
426/05 03:24KELENG54Royal flush10,000,000
526/05 03:19CISANGKERoyal flush2,000,000
TOP STRAIGHT FLUSH
No.TanggalNamaPriceWin
126/05 03:37BI5YHDP8ODStraight Flush1,200,000
226/05 03:37SHARK2018Straight Flush600,000
326/05 03:35AZULLA07Straight Flush60,000
426/05 03:35MACANHOKIStraight Flush240,000
526/05 03:34SNI49380Straight Flush240,000
LATEST JACKPOT
No.TanggalNamaPriceWin
126/05 03:38GEOVF9SLBLFull House500
226/05 03:38SABLENG321Full House2,000
326/05 03:38BVCCSX4LPPFull House5,000
426/05 03:38CEDRICKSFull House5,000
526/05 03:38ZOMBIIEFull House10,000
626/05 03:38JAGONGANFull House2,000
726/05 03:38FUCKYOU345Full House2,000
826/05 03:38NUYIN70Full House5,000
926/05 03:38BICAL08Full House5,000
1026/05 03:38YTHQJSE8XDFull House2,000
1126/05 03:38WESE8762Full House5,000
1226/05 03:38SAHRANOKFull House10,000
1326/05 03:38DAFA92Full House5,000
1426/05 03:38VIVIN999Full House1,000
1526/05 03:38PUPUT2121Full House2,000
1626/05 03:38ARI0790Full House1,000
1726/05 03:38GHAYANK137Full House2,000
1826/05 03:38PONTEPFull House5,000
1926/05 03:38KOMANDO7777Full House10,000
2026/05 03:38NIMIDFull House5,000
2126/05 03:38DALFIAZFull House5,000
2226/05 03:38STEMPELFull House20,000
2326/05 03:38SNI39817Full House20,000
2426/05 03:38GAKCAIR2Four Of A Kind25,000
2526/05 03:38DEPRAN1983Full House2,000
2626/05 03:38DHP08Full House2,000
2726/05 03:38CAPSUN08Full House20,000
2826/05 03:38RQS2011Full House2,000
2926/05 03:38NILA1122Full House2,000
3026/05 03:38AQIER77Full House2,000
3126/05 03:38ADECKLIONFull House5,000
3226/05 03:38TNN07Full House500
3326/05 03:38HEROEHOKKYFull House20,000
3426/05 03:38E7DOOZ9PL3Four Of A Kind125,000
3526/05 03:38ADHITIALVAFull House10,000
3626/05 03:38JOGJEZ7Full House10,000
3726/05 03:38Z56RRCZ05ZFull House5,000
3826/05 03:38SNJHD86Full House2,000
3926/05 03:38LB889938Full House5,000
4026/05 03:38SAD4TFull House20,000
4126/05 03:38KOMES91Full House2,000
4226/05 03:38ADHEAV92Full House10,000
4326/05 03:38AMOYA15Four Of A Kind250,000
4426/05 03:38BEB50Full House2,000
4526/05 03:38ERKACA182Full House10,000
4626/05 03:38QUINTHA87Full House5,000
4726/05 03:38SURIYAN707Full House10,000
4826/05 03:38BOMB234Full House10,000
4926/05 03:38D8190B3AFull House5,000
5026/05 03:38ARIPDOLLAFull House10,000

Domino Multi Jackpot System

Ikutilah global jackpot yang tersedia di system kami, dengan system jackpot terbaru dan pertama di indonesia, anda dapat membeli jackpot dengan harga 100 rupiah saja dan menangkan hadiahnya hingga puluhan juta rupiah.

Jackpot bukanlah suatu keharusan untuk dibeli, namun kami memberikan suatu fitur tambahan untuk member tercinta dari www.s1288poker.co.

Terdapat tiga pilihan harga jackpot yang bisa anda beli yaitu :100,500 dan 1000 rupiah.

Hadiah dari Multi jackpot system www.s1288poker.co

  1. Murni Kecil x 50 harga jackpot yang anda beli.
      (contoh:anda membeli 1000 maka:1000 X 50 = 50.000)
  2. Murni Besar x 50 harga jackpot yang anda beli
      (contoh:anda membeli 1000 maka:1000 X 50 = 50.000)
  3. BALAK x 100 harga jackpot yang anda beli
      (contoh:anda membeli 1000 maka:1000 X 100 = 100.000)
  4. ENAM DEWA x 6666 harga jackpot yang anda beli
      (contoh:anda membeli 1000 maka:1000 X 6666 = 6.666.000)

Demikian adalah penjelasan dari Multi Jackpot www.s1288poker.co terima kasih dan selamat bermain salam hoki dari kami

Domino Jackpot Winner

TOP ENAM DEWA
No.TanggalNamaPriceWin
126/05 00:35JANOKO86murni enam666,600
225/05 22:32AGENT88554murni enam3,333,000
325/05 21:57ANAK_DEPOTmurni enam666,600
425/05 20:06YETNO97murni enam6,666,000
525/05 19:42JALY31murni enam6,666,000
TOP BALAK
No.TanggalNamaPriceWin
126/05 03:38AJAY74balak100,000
226/05 03:37R4M11balak100,000
326/05 03:35SAPU9balak100,000
426/05 03:35A7GK4CILIbalak100,000
526/05 03:34SR_GOKILbalak100,000
LATEST JACKPOT
No.TanggalNamaPriceWin
126/05 03:38GANASSS02murni besar50,000
226/05 03:38IJIKBIRAY9lucky992,500
326/05 03:38AJAY74balak100,000
426/05 03:38FF62E3E4murni kecil5,000
526/05 03:37R4M11balak100,000
626/05 03:36UNCAY01murni kecil50,000
726/05 03:36SAPU9murni besar50,000
826/05 03:36ZUPERTEN10murni besar25,000
926/05 03:35SAPU9balak100,000
1026/05 03:35JURLAP015murni kecil50,000
1126/05 03:35A7GK4CILIbalak100,000
1226/05 03:34SAPU9murni besar50,000
1326/05 03:34D1K1Tmurni besar50,000
1426/05 03:34HENG351murni besar50,000
1526/05 03:34SR_GOKILbalak100,000
1626/05 03:34UCHIHA_JOmurni besar25,000
1726/05 03:34MUKLAS17murni besar50,000
1826/05 03:33KAKANG123murni besar50,000
1926/05 03:33JAME31murni besar50,000
2026/05 03:33ST3VENOO7murni besar50,000
2126/05 03:33SNI56495murni kecil5,000
2226/05 03:33ZENAL0411balak50,000
2326/05 03:32LOBET6666murni besar50,000
2426/05 03:32MAUMEN4NG1murni besar5,000
2526/05 03:31GREJ6672AEmurni kecil50,000
2626/05 03:31TGMJAYAOKmurni besar50,000
2726/05 03:31FLASSSSSSSmurni kecil50,000
2826/05 03:31ABDUL272murni kecil50,000
2926/05 03:30HOKIWOLFlucky9910,000
3026/05 03:30P4YHO01murni besar5,000
3126/05 03:30UB511balak50,000
3226/05 03:30FOX96balak100,000
3326/05 03:29C1T4T4murni besar25,000
3426/05 03:29F0RG3TTbalak50,000
3526/05 03:29FLASSSSSSSmurni besar50,000
3626/05 03:28GUSZAMmurni kecil25,000
3726/05 03:28JULIAN0707murni besar5,000
3826/05 03:28PONCKImurni besar25,000
3926/05 03:27RIZKI2013murni besar50,000
4026/05 03:27MUKLAS17murni besar50,000
4126/05 03:27JAME31balak50,000
4226/05 03:27TAUHID82murni kecil25,000
4326/05 03:26EFICK11murni kecil50,000
4426/05 03:26GEMEN11murni kecil5,000
4526/05 03:25YANINGSImurni besar5,000
4626/05 03:25GANASSS02murni besar50,000
4726/05 03:24PRIBAD1murni kecil50,000
4826/05 03:23RSSTONElucky9910,000
4926/05 03:23ZAQ123SEXmurni besar5,000
5026/05 03:22PRIYONO00lucky9925,000

Ceme Multi Jackpot System

Jackpot dilihat dari gabungan kartu pemain dengan kartu bandar. Bandar harus membeli jackpot sebanyak jumlah player yang sedang duduk. Sebagai contoh bila terdapat 3 pemain duduk bermain, dan bandar memutuskan untuk membeli jackpot Rp 1.000, maka pada periode tersebut bandar akan membeli jackpot sebanyak 3xRp1.000 = Rp3.000.

Jackpot bukanlah suatu keharusan untuk dibeli, namun kami memberikan suatu fitur tambahan untuk member tercinta dari www.s1288poker.co.

Terdapat tiga pilihan harga jackpot yang bisa anda beli yaitu :100,500 dan 1000 rupiah.

Hadiah dari Multi jackpot system www.s1288poker.co

  1. Murni Kecil x 50 harga jackpot yang anda beli.
      (contoh:anda membeli 1000 maka:1000 X 50 = 50.000)
  2. Murni Besar x 50 harga jackpot yang anda beli
      (contoh:anda membeli 1000 maka:1000 X 50 = 50.000)
  3. BALAK x 200 harga jackpot yang anda beli
      (contoh:anda membeli 1000 maka:1000 X 200 = 200.000)
  4. ENAM DEWA x 6666 harga jackpot yang anda beli
      (contoh:anda membeli 1000 maka:1000 X 6666 = 6.666.000)

Demikian adalah penjelasan dari Multi Jackpot www.s1288poker.co terima kasih dan selamat bermain salam hoki dari kami

Ceme Jackpot Winner

TOP ENAM DEWA
No.TanggalNamaPriceWin
126/05 03:31ADITXmurni enam6,666,000
226/05 03:27R4M11murni enam6,666,000
326/05 03:27YOPAN19murni enam6,666,000
426/05 03:27HAPPY688murni enam6,666,000
526/05 03:23MLENGSE77murni enam6,666,000
TOP BALAK
No.TanggalNamaPriceWin
126/05 03:33RUJITO_balak200,000
226/05 03:31DELILAAH78balak200,000
326/05 03:31KOCKBRUTbalak200,000
426/05 03:31RAYYARPSbalak100,000
526/05 03:31CICAK122balak20,000
LATEST JACKPOT
No.TanggalNamaPriceWin
126/05 03:38AZURA889murni kecil25,000
226/05 03:38PEKONG20murni kecil25,000
326/05 03:38ARMY2890murni kecil50,000
426/05 03:38AFONG6789murni kecil5,000
526/05 03:38AG123USmurni besar50,000
626/05 03:38G00S00NGmurni besar5,000
726/05 03:38KUROO_99murni kecil25,000
826/05 03:38FIFASUKImurni kecil50,000
926/05 03:38YUSUF788murni kecil5,000
1026/05 03:38BALAW129murni kecil5,000
1126/05 03:38KANCILL43murni besar25,000
1226/05 03:38L10DH1murni kecil50,000
1326/05 03:38MARITUN12murni kecil50,000
1426/05 03:38SKUMSSSmurni kecil50,000
1526/05 03:37THEBLUES93murni besar5,000
1626/05 03:37CANTIQUE88murni kecil50,000
1726/05 03:37LINGSANG09murni kecil50,000
1826/05 03:37KENI6345murni kecil50,000
1926/05 03:37AKX6GYC2IOmurni kecil50,000
2026/05 03:37KRIZA58murni besar25,000
2126/05 03:37UAN911murni kecil25,000
2226/05 03:37KINGOFDAmurni kecil5,000
2326/05 03:36NDO13murni kecil25,000
2426/05 03:36KYBLACK99murni besar5,000
2526/05 03:36CURUGCITYmurni kecil5,000
2626/05 03:36CANTIQUE88murni besar50,000
2726/05 03:36ZHYKA12murni kecil50,000
2826/05 03:36KINGFULUS9murni kecil5,000
2926/05 03:36CLUBCBR1murni kecil50,000
3026/05 03:36CELLA080murni besar25,000
3126/05 03:36D0NI96murni kecil50,000
3226/05 03:36LULIATAJAmurni kecil25,000
3326/05 03:36D0NI96murni kecil50,000
3426/05 03:36B4N6K3QQmurni kecil25,000
3526/05 03:36NEST0880murni kecil25,000
3626/05 03:36LB991799murni kecil50,000
3726/05 03:35JUNED860murni kecil50,000
3826/05 03:35PX12303murni kecil25,000
3926/05 03:35AAAALACH70murni kecil25,000
4026/05 03:35NEST0880murni kecil25,000
4126/05 03:35KUTILBASI1murni kecil25,000
4226/05 03:35GONYICIL99murni kecil50,000
4326/05 03:35PANKSORmurni besar25,000
4426/05 03:35SUNIA770murni besar25,000
4526/05 03:35GAWE_66murni besar50,000
4626/05 03:35YASIR36murni kecil25,000
4726/05 03:35KIDZ7878murni besar50,000
4826/05 03:35CAMRYCOQIUmurni besar50,000
4926/05 03:34EVHAN24murni kecil25,000
5026/05 03:34ALMUH9murni kecil5,000